Location: Blackfoot
(53.5367°N, 112.7800°W)
Time: 19:36:07
(UTC-06:00)

Amateur Radio Satellites - All Passes

Search period start: 24 April 2015 19:06
Search period end: 25 April 2015 19:06
Location: Blackfoot, 53.5367°N, 112.7800°W

Satellite Date Start Highest point End Downlink Frequencies (MHz)
Time Altitude Azimuth
Cosmos 2499 24 Apr 19:07:29 19:15:54 52° 90° (E) 19:24:06 435.465 / 435.565
HO-68 24 Apr 19:10:13 19:15:51 26° 47° (NE) 19:21:37 435.675
STRAND 1 24 Apr 19:10:23 19:12:48 14° 83° (E) 19:15:26 437.568
CUSAT 1 24 Apr 19:18:30 19:22:22 46° 294° (WNW) 19:27:33 437.405
JAS-2 24 Apr 19:19:30 19:22:06 11° 287° (WNW) 19:24:09 435.910
YUBILEINY 24 Apr 19:21:01 19:23:49 12° 26° (NNE) 19:26:56 435.215
CUTE-I 24 Apr 19:23:17 19:28:26 48° 261° (W) 19:33:36 437.470
M-CUBED/EXP-1 PRIME 24 Apr 19:30:08 19:33:53 27° 98° (E) 19:37:26 437.505
CUBESAT XI-V 24 Apr 19:30:25 19:34:37 34° 95° (E) 19:38:51 437.345
GONETS M04 24 Apr 19:31:22 19:39:33 40° 299° (WNW) 19:47:43
Cubesat XI-IV 24 Apr 19:32:47 19:37:49 41° 263° (W) 19:42:51 437.490
MOZHAYETS 4 24 Apr 19:34:34 19:38:39 31° 297° (WNW) 19:42:40
SEEDS 24 Apr 19:38:04 19:39:52 13° 53° (NE) 19:41:48 437.485
CANX-2 24 Apr 19:43:29 19:46:13 17° 57° (ENE) 19:49:05 2200.000
GOMX 1 24 Apr 19:44:18 19:47:25 20° 57° (ENE) 19:50:45 467.674
CINEMA 3 24 Apr 19:44:33 19:44:50 10° 47° (NE) 19:45:17 145.822/145.860
RS-15 24 Apr 19:44:40 19:55:20 49° 352° (N) 20:06:26 29.354- 29.394
BRITE-PL 24 Apr 19:50:29 19:54:08 30° 63° (ENE) 19:57:59 437.365/2234.400
DANDE 24 Apr 19:51:18 19:54:45 31° 300° (WNW) 19:59:10 436.750
CUTE 1.7 + AOD 2 24 Apr 19:52:32 19:55:29 19° 58° (ENE) 19:58:32 437.475
AAUSAT CUBESAT 2 24 Apr 19:57:33 19:59:37 14° 55° (NE) 20:01:50 437.432
AUBIESAT-1 24 Apr 20:13:18 20:17:39 60° 107° (ESE) 20:21:37 437.475
SO-50 24 Apr 20:13:35 20:18:32 66° 40° (NE) 20:23:29 436.795
UWE-3 24 Apr 20:19:43 20:19:56 10° 48° (NE) 20:20:19 435.000/436.395/437.385
DOVE 4 24 Apr 20:25:13 20:29:00 31° 63° (ENE) 20:33:02 437.250
PRISM 24 Apr 20:31:28 20:35:36 75° 104° (ESE) 20:39:42 437.425
FUNcube-1 24 Apr 20:31:44 20:32:23 10° 49° (NE) 20:33:11 145.935
COMPASS 1 24 Apr 20:47:17 20:51:11 37° 66° (ENE) 20:55:07 437.405
STRAND 1 24 Apr 20:47:52 20:53:00 76° 105° (ESE) 20:58:07 437.568
ZACube-1 24 Apr 20:54:26 20:57:00 16° 54° (NE) 20:59:44 437.345
Oscar 11 24 Apr 20:55:18 20:58:43 23° 60° (ENE) 21:02:13 145.826/435.025
HO-68 24 Apr 20:55:33 21:02:46 83° 69° (ENE) 21:10:02 435.675
Cosmos 2499 24 Apr 21:00:38 21:09:14 51° 293° (WNW) 21:17:28 435.465 / 435.565
M-CUBED/EXP-1 PRIME 24 Apr 21:04:41 21:08:58 45° 300° (WNW) 21:12:54 437.505
CUSAT 1 24 Apr 21:06:07 21:07:08 10° 323° (NW) 21:08:00 437.405
CUBESAT XI-V 24 Apr 21:07:52 21:12:08 38° 294° (WNW) 21:16:22 437.345
SEEDS 24 Apr 21:10:42 21:14:58 70° 73° (ENE) 21:19:15 437.485
DELFI C3 24 Apr 21:13:35 21:16:52 24° 62° (ENE) 21:20:14 145.870
YUBILEINY 24 Apr 21:16:42 21:24:25 33° 57° (ENE) 21:32:12 435.215
CINEMA 3 24 Apr 21:16:45 21:21:00 48° 68° (ENE) 21:25:28 145.822/145.860
CANX-2 24 Apr 21:17:20 21:21:39 82° 256° (WSW) 21:26:01 2200.000
GOMX 1 24 Apr 21:20:55 21:25:08 66° 258° (WSW) 21:29:37 467.674
Cosmos 2491 24 Apr 21:21:52 21:23:48 11° 64° (ENE) 21:26:18 435.465 / 435.565
CUBEBUG 2 24 Apr 21:23:14 21:27:13 34° 64° (ENE) 21:31:23 437.445
CUTE 1.7 + AOD 2 24 Apr 21:26:40 21:30:58 74° 257° (WSW) 21:35:19 437.475
DX 1 24 Apr 21:27:28 21:30:37 20° 58° (ENE) 21:33:51 434.975-435.025
BRITE-PL 24 Apr 21:28:43 21:32:38 38° 264° (W) 21:36:43 437.365/2234.400
AAUSAT CUBESAT 2 24 Apr 21:30:23 21:34:37 79° 73° (ENE) 21:38:52 437.432
GONETS M04 24 Apr 21:35:30 21:39:48 14° 329° (NNW) 21:43:49
PHONESAT 2.4 24 Apr 21:47:10 21:47:44 10° 184° (S) 21:48:19 2401.200-2431.200
AUBIESAT-1 24 Apr 21:48:32 21:52:06 24° 308° (NW) 21:55:22 437.475
ESTCUBE 1 24 Apr 21:49:10 21:50:40 12° 50° (NE) 21:52:20 437.505/2401.250
UWE-3 24 Apr 21:51:14 21:55:29 49° 68° (ENE) 21:59:54 435.000/436.395/437.385
SO-50 24 Apr 21:54:30 21:58:50 30° 240° (WSW) 22:03:05 436.795
RS-15 24 Apr 21:59:06 22:10:10 58° 25° (NNE) 22:21:48 29.354- 29.394
DOVE 4 24 Apr 22:02:38 22:06:42 40° 264° (W) 22:11:00 437.250
FUNcube-1 24 Apr 22:03:31 22:07:45 51° 69° (ENE) 22:12:09 145.935
50 SAT 24 Apr 22:04:44 22:07:42 20° 60° (ENE) 22:10:45 437.505
PRISM 24 Apr 22:07:52 22:10:37 17° 303° (WNW) 22:13:17 437.425
UKube-1 24 Apr 22:10:53 22:14:56 41° 66° (ENE) 22:19:02 .
COMPASS 1 24 Apr 22:23:07 22:26:56 31° 266° (W) 22:30:44 437.405
STRAND 1 24 Apr 22:27:47 22:31:45 23° 304° (NW) 22:35:38 437.568
ZACube-1 24 Apr 22:28:20 22:32:44 85° 76° (ENE) 22:37:16 437.345
VELOX 1 24 Apr 22:29:44 22:33:42 34° 64° (ENE) 22:37:43 145.980
Oscar 11 24 Apr 22:30:19 22:34:37 56° 260° (W) 22:38:57 145.826/435.025
HUMSAT D 24 Apr 22:31:43 22:35:50 50° 69° (ENE) 22:40:03 437.325/437.525
Cosmos 2504 24 Apr 22:35:14 22:39:21 14° 35° (NE) 22:43:39 435.465 / 435.565
CUBEBUG 1 24 Apr 22:38:39 22:42:02 23° 60° (ENE) 22:45:29 437.445
M-CUBED/EXP-1 PRIME 24 Apr 22:41:32 22:42:47 11° 321° (NW) 22:43:54 437.505
HO-68 24 Apr 22:45:26 22:51:24 26° 271° (W) 22:57:14 435.675
AISAT 24 Apr 22:46:54 22:51:08 48° 68° (ENE) 22:55:25 437.250
DELFI C3 24 Apr 22:47:51 22:51:49 47° 261° (W) 22:55:47 145.870
SEEDS 24 Apr 22:48:24 22:51:18 17° 273° (W) 22:54:05 437.485
ANTELSAT 24 Apr 22:51:43 22:54:04 14° 84° (E) 22:56:35 437.575/2403.000
CINEMA 3 24 Apr 22:54:46 22:58:29 26° 269° (W) 23:02:19 145.822/145.860
CANX-2 24 Apr 22:56:35 22:58:24 12° 277° (W) 23:00:00 2200.000
Cosmos 2499 24 Apr 22:59:27 23:04:54 17° 319° (NW) 23:09:55 435.465 / 435.565
CUBEBUG 2 24 Apr 22:59:46 23:03:54 37° 265° (W) 23:08:10 437.445
DX 1 24 Apr 23:02:10 23:06:29 67° 257° (WSW) 23:10:50 434.975-435.025
CUTE 1.7 + AOD 2 24 Apr 23:06:40 23:07:47 11° 278° (W) 23:08:41 437.475
AAUSAT CUBESAT 2 24 Apr 23:08:19 23:10:50 15° 274° (W) 23:13:14 437.432
Cosmos 2491 24 Apr 23:10:21 23:18:27 46° 87° (E) 23:26:42 435.465 / 435.565
YUBILEINY 24 Apr 23:13:30 23:22:19 79° 262° (W) 23:31:00 435.215
ESTCUBE 1 24 Apr 23:22:17 23:26:43 58° 70° (ENE) 23:31:10 437.505/2401.250
UWE-3 24 Apr 23:28:34 23:32:18 25° 269° (W) 23:36:03 435.000/436.395/437.385
O/OREOS (USA 219) 24 Apr 23:33:41 23:38:05 48° 112° (ESE) 23:42:30 437.305
QB50P2 24 Apr 23:35:58 23:38:42 17° 88° (E) 23:41:33 145.880/145.840
TISAT 1 24 Apr 23:36:09 23:39:14 21° 59° (ENE) 23:42:26 437.305
50 SAT 24 Apr 23:38:13 23:42:11 57° 259° (W) 23:46:12 437.505
FUNcube-1 24 Apr 23:40:47 23:44:24 24° 270° (W) 23:48:02 145.935
TIGRISAT 24 Apr 23:41:11 23:45:29 34° 94° (E) 23:49:47 435.000
UNISAT 6 24 Apr 23:45:01 23:49:25 37° 96° (E) 23:53:48 437.425
UKube-1 24 Apr 23:47:27 23:51:14 28° 266° (W) 23:54:59 .
SWISSCUBE 24 Apr 23:51:39 23:52:05 10° 46° (NE) 23:52:41 437.505
NANOSAT C BR1 24 Apr 23:54:20 23:57:46 23° 91° (E) 00:01:15 145.865
POPSAT HIP 1 24 Apr 23:57:02 00:00:34 25° 92° (E) 00:04:09 437.405
SPROUT 25 Apr 00:02:07 00:06:05 39° 66° (ENE) 00:10:07 437.525
VELOX 1 25 Apr 00:06:11 00:10:16 36° 264° (W) 00:14:21 145.980
ZACube-1 25 Apr 00:07:13 00:09:49 15° 275° (W) 00:12:18 437.345
HUMSAT D 25 Apr 00:08:27 00:11:54 23° 269° (W) 00:15:19 437.325/437.525
RS-15 25 Apr 00:12:00 00:23:22 75° 232° (SW) 00:35:14 29.354- 29.394
CUBEBUG 1 25 Apr 00:13:52 00:18:08 56° 259° (W) 00:22:25 437.445
AISAT 25 Apr 00:24:18 00:27:59 25° 268° (W) 00:31:38 437.250
POLYITAN 1 25 Apr 00:26:01 00:30:11 45° 99° (E) 00:34:21 437.675
BUGSAT 1 25 Apr 00:26:28 00:30:12 32° 96° (E) 00:33:59 437.445
ANTELSAT 25 Apr 00:26:54 00:31:41 83° 105° (ESE) 00:36:24 437.575/2403.000
Cosmos 2504 25 Apr 00:27:51 00:35:44 44° 64° (ENE) 00:43:05 435.465 / 435.565
DUCHIFAT 1 25 Apr 00:28:11 00:32:19 45° 99° (E) 00:36:27 145.980
QB50P1 25 Apr 00:45:01 00:49:19 66° 103° (ESE) 00:53:35 145.935-145.965
ITUPSAT 1 25 Apr 00:51:32 00:55:20 25° 58° (ENE) 00:59:14 437.325
AIST 1 25 Apr 00:58:40 01:02:08 25° 89° (E) 01:05:40
ESTCUBE 1 25 Apr 01:00:25 01:03:59 22° 270° (W) 01:07:27 437.505/2401.250
Cosmos 2491 25 Apr 01:06:44 01:15:17 55° 291° (WNW) 01:23:55 435.465 / 435.565
TISAT 1 25 Apr 01:10:33 01:14:42 61° 258° (WSW) 01:18:53 437.305
QB50P2 25 Apr 01:10:50 01:15:09 72° 288° (WNW) 01:19:26 145.880/145.840
YUBILEINY 25 Apr 01:11:32 01:17:52 22° 285° (WNW) 01:23:51 435.215
O/OREOS (USA 219) 25 Apr 01:13:34 01:17:42 32° 314° (NW) 01:21:49 437.305
TIGRISAT 25 Apr 01:17:53 01:22:19 40° 294° (WNW) 01:26:42 435.000
UNISAT 6 25 Apr 01:21:51 01:26:13 37° 295° (WNW) 01:30:31 437.425
BEESAT 25 Apr 01:22:05 01:26:33 41° 65° (ENE) 01:31:03 436.000
SWISSCUBE 25 Apr 01:24:22 01:28:54 45° 66° (ENE) 01:33:29 437.505
NANOSAT C BR1 25 Apr 01:29:44 01:33:53 50° 291° (WNW) 01:38:03 145.865
POPSAT HIP 1 25 Apr 01:32:32 01:36:41 47° 292° (WNW) 01:40:49 437.405
KKS-1 25 Apr 01:33:05 01:35:22 14° 53° (NE) 01:37:47 437.445
SPROUT 25 Apr 01:38:30 01:42:17 29° 266° (W) 01:46:04 437.525
GONETS M04 25 Apr 01:39:11 01:44:15 16° 37° (NE) 01:49:38
BUGSAT 1 25 Apr 02:01:57 02:05:42 34° 295° (WNW) 02:09:28 437.445
POLYITAN 1 25 Apr 02:02:15 02:05:57 27° 297° (WNW) 02:09:35 437.675
DUCHIFAT 1 25 Apr 02:04:20 02:07:59 27° 298° (WNW) 02:11:33 145.980
ANTELSAT 25 Apr 02:04:34 02:07:56 19° 304° (NW) 02:11:12 437.575/2403.000
Cosmos 2504 25 Apr 02:21:29 02:29:30 55° 269° (W) 02:36:52 435.465 / 435.565
QB50P1 25 Apr 02:21:37 02:24:48 20° 301° (WNW) 02:27:54 145.935-145.965
CUSAT 1 25 Apr 02:22:21 02:26:15 16° 46° (NE) 02:30:48 437.405
RS-15 25 Apr 02:25:15 02:34:12 26° 257° (WSW) 02:42:59 29.354- 29.394
STARS 25 Apr 02:28:00 02:31:36 25° 60° (ENE) 02:35:16 437.465
ITUPSAT 1 25 Apr 02:28:09 02:32:55 63° 258° (WSW) 02:37:42 437.325
AIST 1 25 Apr 02:35:29 02:39:37 43° 288° (WNW) 02:43:44
Oscar 19 25 Apr 02:36:11 02:41:00 37° 95° (E) 02:45:51 437.125/150
QB50P2 25 Apr 02:48:18 02:50:21 13° 307° (NW) 02:52:18 145.880/145.840
DANDE 25 Apr 02:56:12 03:00:47 19° 51° (NE) 03:06:13 436.750
O/OREOS (USA 219) 25 Apr 02:57:20 02:58:37 11° 338° (NNW) 02:59:49 437.305
BEESAT 25 Apr 03:00:07 03:04:29 34° 265° (W) 03:08:52 436.000
SWISSCUBE 25 Apr 03:02:41 03:06:57 31° 266° (W) 03:11:11 437.505
KKS-1 25 Apr 03:06:54 03:11:20 75° 72° (ENE) 03:15:48 437.445
Cosmos 2491 25 Apr 03:08:56 03:14:45 18° 320° (NW) 03:20:20 435.465 / 435.565
ITAMSAT 1 25 Apr 03:09:25 03:13:39 26° 91° (E) 03:17:58 435.822/435.867
MOZHAYETS 4 25 Apr 03:30:21 03:33:06 16° 55° (NE) 03:36:00
Gurwin Techsat 1B 25 Apr 03:34:27 03:39:20 36° 95° (E) 03:44:14 435.225
GONETS M04 25 Apr 03:35:29 03:44:01 49° 66° (ENE) 03:52:33
AIST 2 25 Apr 03:52:05 03:52:54 11° 111° (ESE) 03:53:57 435.215
AUBIESAT-1 25 Apr 04:02:26 04:02:52 10° 39° (NE) 04:03:27 437.475
STARS 25 Apr 04:03:32 04:07:49 51° 260° (W) 04:12:10 437.465
CUSAT 1 25 Apr 04:03:53 04:10:39 49° 67° (ENE) 04:18:35 437.405
AO-7 25 Apr 04:04:49 04:10:07 19° 82° (E) 04:15:48 29.400- 29.500
ITUPSAT 1 25 Apr 04:11:11 04:11:55 10° 279° (W) 04:12:22 437.325
Oscar 19 25 Apr 04:15:32 04:20:28 42° 296° (WNW) 04:25:20 437.125/150
Cosmos 2504 25 Apr 04:17:20 04:21:02 13° 293° (WNW) 04:24:12 435.465 / 435.565
BEESAT 3 25 Apr 04:29:49 04:33:51 58° 129° (SE) 04:37:56 437.485
BEESAT 2 25 Apr 04:30:20 04:34:21 51° 127° (SE) 04:38:24 435.950
JAS-2 25 Apr 04:31:17 04:36:28 24° 84° (E) 04:41:18 435.910
DANDE 25 Apr 04:38:31 04:45:16 63° 72° (ENE) 04:53:30 436.750
KKS-1 25 Apr 04:45:35 04:48:33 17° 273° (W) 04:51:24 437.445
ITAMSAT 1 25 Apr 04:48:28 04:53:36 61° 292° (WNW) 04:58:41 435.822/435.867
M-CUBED/EXP-1 PRIME 25 Apr 04:50:10 04:53:48 22° 50° (NE) 04:57:27 437.505
Cosmos 2499 25 Apr 04:51:20 04:58:07 29° 55° (NE) 05:04:35 435.465 / 435.565
MOZHAYETS 4 25 Apr 05:05:03 05:09:43 83° 72° (ENE) 05:14:23
CUBESAT XI-V 25 Apr 05:05:34 05:07:45 14° 52° (NE) 05:10:05 437.345
HORYU 2 25 Apr 05:12:51 05:17:20 58° 101° (ESE) 05:21:47 437.375
Gurwin Techsat 1B 25 Apr 05:14:24 05:19:28 45° 295° (WNW) 05:24:29 435.225
AIST 2 25 Apr 05:26:30 05:30:43 61° 129° (SE) 05:34:59 435.215
AUBIESAT-1 25 Apr 05:32:10 05:36:35 37° 58° (ENE) 05:40:57 437.475
GONETS M04 25 Apr 05:32:35 05:41:07 54° 270° (W) 05:49:34
CUSAT 1 25 Apr 05:46:40 05:53:32 51° 265° (W) 06:01:23 437.405
PRISM 25 Apr 05:53:41 05:56:42 20° 59° (ENE) 05:59:47 437.425
AO-7 25 Apr 05:56:23 06:04:42 70° 106° (ESE) 06:13:02 29.400- 29.500
Oscar 19 25 Apr 05:57:27 05:58:40 11° 316° (NW) 05:59:40 437.125/150
BEESAT 3 25 Apr 06:08:20 06:12:07 33° 330° (NNW) 06:15:54 437.485
BEESAT 2 25 Apr 06:08:45 06:12:37 36° 328° (NNW) 06:16:31 435.950
JAS-2 25 Apr 06:15:43 06:22:31 78° 290° (WNW) 06:28:26 435.910
O/OREOS (USA 219) 25 Apr 06:19:35 06:21:53 14° 29° (NNE) 06:24:16 437.305
DANDE 25 Apr 06:22:03 06:28:27 39° 268° (W) 06:35:51 436.750
M-CUBED/EXP-1 PRIME 25 Apr 06:23:18 06:28:10 84° 250° (WSW) 06:33:01 437.505
ITAMSAT 1 25 Apr 06:29:26 06:32:13 14° 312° (NW) 06:34:51 435.822/435.867
STRAND 1 25 Apr 06:31:41 06:36:21 38° 63° (ENE) 06:41:05 437.568
CUBESAT XI-V 25 Apr 06:39:51 06:44:28 68° 71° (ENE) 06:49:04 437.345
Cosmos 2499 25 Apr 06:44:20 06:52:26 83° 261° (W) 06:59:52 435.465 / 435.565
MOZHAYETS 4 25 Apr 06:44:38 06:47:37 16° 274° (W) 06:50:26
HORYU 2 25 Apr 06:50:02 06:53:41 24° 301° (WNW) 06:57:15 437.375
Gurwin Techsat 1B 25 Apr 06:56:33 06:58:18 11° 316° (NW) 06:59:52 435.225
AIST 2 25 Apr 07:05:37 07:09:35 34° 330° (NNW) 07:13:32 435.215
AUBIESAT-1 25 Apr 07:06:43 07:11:18 42° 257° (WSW) 07:15:50 437.475
Cosmos 2491 25 Apr 07:16:00 07:19:09 12° 28° (NNE) 07:22:38 435.465 / 435.565
PRISM 25 Apr 07:27:41 07:31:49 63° 257° (WSW) 07:35:58 437.425
CUSAT 1 25 Apr 07:31:45 07:35:11 13° 283° (WNW) 07:38:21 437.405
GONETS M04 25 Apr 07:31:49 07:36:00 14° 293° (WNW) 07:39:41
CUTE-I 25 Apr 07:33:33 07:38:36 42° 97° (E) 07:43:40 437.470
Cubesat XI-IV 25 Apr 07:42:58 07:48:09 50° 99° (E) 07:53:20 437.490
BEESAT 3 25 Apr 07:48:19 07:51:13 18° 353° (N) 07:54:05 437.485
BEESAT 2 25 Apr 07:48:49 07:51:47 18° 351° (N) 07:54:44 435.950
AO-7 25 Apr 07:49:35 07:57:12 41° 309° (NW) 08:04:44 29.400- 29.500
O/OREOS (USA 219) 25 Apr 07:58:06 08:02:29 47° 52° (NE) 08:06:51 437.305
M-CUBED/EXP-1 PRIME 25 Apr 08:00:45 08:03:43 16° 269° (W) 08:06:31 437.505
JAS-2 25 Apr 08:01:34 08:06:35 22° 313° (NW) 08:11:05 435.910
STRAND 1 25 Apr 08:10:44 08:15:34 41° 263° (W) 08:20:24 437.568
CUBESAT XI-V 25 Apr 08:19:01 08:22:25 19° 272° (W) 08:25:43 437.345
HO-68 25 Apr 08:19:57 08:20:59 10° 75° (ENE) 08:22:31 435.675
Cosmos 2499 25 Apr 08:38:41 08:44:24 21° 285° (WNW) 08:49:36 435.465 / 435.565
AIST 2 25 Apr 08:46:12 08:49:17 19° 353° (N) 08:52:21 435.215
CANX-2 25 Apr 08:58:08 08:59:49 12° 83° (E) 09:01:41 2200.000
CUTE 1.7 + AOD 2 25 Apr 09:07:00 09:09:07 14° 85° (E) 09:11:23 437.475
Cosmos 2491 25 Apr 09:11:51 09:19:42 35° 58° (ENE) 09:27:41 435.465 / 435.565
TIGRISAT 25 Apr 09:12:33 09:14:29 13° 51° (NE) 09:16:36 435.000
CUTE-I 25 Apr 09:13:46 09:18:42 39° 297° (WNW) 09:23:36 437.470
GOMX 1 25 Apr 09:15:39 09:19:50 26° 91° (E) 09:24:16 467.674
UNISAT 6 25 Apr 09:16:14 09:18:31 14° 52° (NE) 09:20:57 437.425
Cubesat XI-IV 25 Apr 09:23:22 09:28:08 34° 299° (WNW) 09:32:51 437.490
BRITE-PL 25 Apr 09:25:26 09:30:07 42° 97° (E) 09:35:10 437.365/2234.400
BEESAT 3 25 Apr 09:27:21 09:30:32 21° 16° (NNE) 09:33:43 437.485
BEESAT 2 25 Apr 09:28:05 09:31:13 20° 15° (NNE) 09:34:22 435.950
PCSat 25 Apr 09:28:14 09:33:18 43° 119° (ESE) 09:38:27 145.827
O/OREOS (USA 219) 25 Apr 09:37:51 09:41:45 29° 253° (WSW) 09:45:35 437.305
AO-7 25 Apr 09:42:58 09:47:58 17° 334° (NNW) 09:52:48 29.400- 29.500
POLYITAN 1 25 Apr 09:51:58 09:54:03 14° 54° (NE) 09:56:16 437.675
DUCHIFAT 1 25 Apr 09:53:38 09:55:38 14° 54° (NE) 09:57:48 145.980
DOVE 4 25 Apr 09:54:13 09:58:53 37° 95° (E) 10:03:45 437.250
ANTELSAT 25 Apr 09:56:21 10:00:08 26° 60° (ENE) 10:04:03 437.575/2403.000
COMPASS 1 25 Apr 09:59:58 10:03:38 28° 93° (E) 10:07:19 437.405
HO-68 25 Apr 10:03:54 10:10:50 49° 99° (E) 10:17:46 435.675
QB50P1 25 Apr 10:09:49 10:12:40 18° 58° (ENE) 10:15:38 145.935-145.965
Oscar 11 25 Apr 10:12:00 10:14:59 18° 88° (E) 10:18:03 145.826/435.025
ZACube-1 25 Apr 10:12:23 10:14:12 12° 82° (E) 10:16:14 437.345
DELFI C3 25 Apr 10:21:48 10:24:21 16° 88° (E) 10:26:59 145.870
SEEDS 25 Apr 10:24:30 10:28:44 56° 100° (E) 10:32:54 437.485
AIST 2 25 Apr 10:25:48 10:29:12 22° 17° (NNE) 10:32:36 435.215
YUBILEINY 25 Apr 10:27:33 10:34:29 28° 79° (ENE) 10:41:38 435.215
CANX-2 25 Apr 10:32:12 10:36:32 84° 104° (ESE) 10:40:49 2200.000
QB50P2 25 Apr 10:34:47 10:38:25 29° 63° (ENE) 10:42:07 145.880/145.840
CUTE 1.7 + AOD 2 25 Apr 10:41:24 10:45:45 87° 286° (WNW) 10:50:02 437.475
CINEMA 3 25 Apr 10:41:44 10:46:34 52° 99° (E) 10:51:30 145.822/145.860
AAUSAT CUBESAT 2 25 Apr 10:42:41 10:46:52 62° 101° (E) 10:51:01 437.432
CUBEBUG 2 25 Apr 10:44:02 10:48:20 33° 94° (E) 10:52:39 437.445
DX 1 25 Apr 10:45:25 10:47:39 14° 86° (E) 10:50:03 434.975-435.025
TIGRISAT 25 Apr 10:45:53 10:50:23 61° 70° (ENE) 10:55:01 435.000
UNISAT 6 25 Apr 10:49:58 10:54:31 68° 71° (ENE) 10:59:11 437.425
NANOSAT C BR1 25 Apr 10:52:53 10:56:47 39° 66° (ENE) 11:00:46 145.865
GOMX 1 25 Apr 10:53:22 10:58:18 60° 289° (WNW) 11:03:30 467.674
POPSAT HIP 1 25 Apr 10:55:49 10:59:47 41° 67° (ENE) 11:03:49 437.405
CUTE-I 25 Apr 10:57:06 10:57:32 10° 318° (NW) 10:57:46 437.470
AIST 1 25 Apr 10:59:14 11:01:35 14° 58° (ENE) 11:04:02
BRITE-PL 25 Apr 11:04:07 11:08:38 37° 295° (WNW) 11:13:25 437.365/2234.400
BEESAT 3 25 Apr 11:05:16 11:09:21 55° 39° (NE) 11:13:22 437.485
BEESAT 2 25 Apr 11:06:07 11:10:12 50° 37° (NE) 11:14:13 435.950
Cosmos 2491 25 Apr 11:08:43 11:17:34 76° 263° (W) 11:26:21 435.465 / 435.565
50 SAT 25 Apr 11:10:35 11:12:19 13° 85° (E) 11:14:12 437.505
UWE-3 25 Apr 11:10:57 11:15:29 46° 98° (E) 11:20:01 435.000/436.395/437.385
PCSat 25 Apr 11:11:27 11:16:44 50° 320° (NW) 11:22:03 145.827
FUNcube-1 25 Apr 11:21:37 11:26:04 46° 98° (E) 11:30:30 145.935
BUGSAT 1 25 Apr 11:22:37 11:26:31 52° 70° (ENE) 11:30:29 437.445
POLYITAN 1 25 Apr 11:25:05 11:29:19 77° 72° (ENE) 11:33:37 437.675
DUCHIFAT 1 25 Apr 11:26:37 11:30:49 77° 73° (ENE) 11:35:04 145.980
UKube-1 25 Apr 11:28:02 11:31:52 30° 95° (E) 11:35:45 .
DOVE 4 25 Apr 11:32:00 11:36:42 41° 294° (WNW) 11:41:33 437.250
ANTELSAT 25 Apr 11:32:10 11:36:40 54° 260° (W) 11:41:17 437.575/2403.000
AO-7 25 Apr 11:34:31 11:37:26 12° 2° (N) 11:40:24 29.400- 29.500
COMPASS 1 25 Apr 11:35:29 11:39:27 39° 293° (WNW) 11:43:22 437.405
QB50P1 25 Apr 11:43:53 11:48:06 73° 257° (WSW) 11:52:22 145.935-145.965
HUMSAT D 25 Apr 11:45:07 11:49:14 40° 97° (E) 11:53:21 437.325/437.525
ZACube-1 25 Apr 11:46:48 11:51:27 77° 104° (ESE) 11:56:04 437.345
Oscar 11 25 Apr 11:47:18 11:51:40 67° 288° (WNW) 11:55:59 145.826/435.025
VELOX 1 25 Apr 11:50:05 11:53:53 28° 93° (E) 11:57:44 145.980
HO-68 25 Apr 11:51:47 11:58:40 49° 300° (WNW) 12:05:27 435.675
DELFI C3 25 Apr 11:55:55 11:59:59 66° 288° (WNW) 12:03:59 145.870
CUBEBUG 1 25 Apr 11:57:00 11:59:57 18° 88° (E) 12:03:00 437.445
SEEDS 25 Apr 12:00:53 12:04:14 22° 300° (WNW) 12:07:30 437.485
AIST 2 25 Apr 12:04:19 12:08:35 59° 40° (NE) 12:12:46 435.215
AISAT 25 Apr 12:07:37 12:11:49 40° 98° (E) 12:16:03 437.250
CANX-2 25 Apr 12:09:10 12:11:57 17° 303° (WNW) 12:14:36 2200.000
QB50P2 25 Apr 12:10:11 12:14:12 41° 262° (W) 12:18:16 145.880/145.840
SO-50 25 Apr 12:15:09 12:18:43 22° 116° (ESE) 12:22:27 436.795
CUTE 1.7 + AOD 2 25 Apr 12:18:32 12:21:04 15° 305° (NW) 12:23:30 437.475
AAUSAT CUBESAT 2 25 Apr 12:19:00 12:22:09 20° 300° (WNW) 12:25:12 437.432
CINEMA 3 25 Apr 12:19:18 12:23:35 30° 298° (WNW) 12:27:53 145.822/145.860
DX 1 25 Apr 12:20:13 12:24:37 87° 284° (WNW) 12:28:59 434.975-435.025
CUBEBUG 2 25 Apr 12:20:37 12:25:08 43° 293° (WNW) 12:29:38 437.445
YUBILEINY 25 Apr 12:21:33 12:30:25 86° 281° (W) 12:39:18 435.215
Oscar 19 25 Apr 12:21:59 12:25:44 21° 54° (NE) 12:29:36 437.125/150
TIGRISAT 25 Apr 12:24:01 12:27:35 22° 271° (W) 12:31:07 435.000
UNISAT 6 25 Apr 12:28:26 12:31:49 20° 272° (W) 12:35:10 437.425
NANOSAT C BR1 25 Apr 12:29:03 12:32:45 29° 266° (W) 12:36:28 145.865
POPSAT HIP 1 25 Apr 12:32:10 12:35:50 27° 267° (W) 12:39:28 437.405
GOMX 1 25 Apr 12:33:10 12:35:38 14° 308° (NW) 12:38:00 467.674
AIST 1 25 Apr 12:35:39 12:39:57 88° 260° (W) 12:44:14
BEESAT 3 25 Apr 12:43:36 12:47:10 28° 239° (WSW) 12:50:39 437.485
50 SAT 25 Apr 12:43:42 12:47:49 87° 277° (W) 12:51:50 437.505
BEESAT 2 25 Apr 12:44:28 12:48:12 32° 238° (WSW) 12:51:50 435.950
ESTCUBE 1 25 Apr 12:45:18 12:49:42 52° 100° (E) 12:54:06 437.505/2401.250
UWE-3 25 Apr 12:47:45 12:51:53 31° 297° (WNW) 12:55:58 435.000/436.395/437.385
TISAT 1 25 Apr 12:49:52 12:52:11 15° 86° (E) 12:54:39 437.305
ITAMSAT 1 25 Apr 12:56:52 12:59:56 16° 50° (NE) 13:03:08 435.822/435.867
PCSat 25 Apr 12:57:07 13:01:23 23° 344° (NNW) 13:05:38 145.827
FUNcube-1 25 Apr 12:58:14 13:02:15 30° 297° (WNW) 13:06:13 145.935
ISS 25 Apr 12:59:11 13:00:20 12° 141° (SE) 13:01:34 145.825
BUGSAT 1 25 Apr 12:59:18 13:02:21 20° 269° (W) 13:05:20 437.445
POLYITAN 1 25 Apr 13:03:16 13:05:50 15° 273° (W) 13:08:19 437.675
UKube-1 25 Apr 13:04:03 13:08:07 39° 294° (WNW) 13:12:09 .
DUCHIFAT 1 25 Apr 13:04:42 13:07:14 15° 273° (W) 13:09:40 145.980
Cosmos 2491 25 Apr 13:06:51 13:13:05 21° 286° (WNW) 13:19:01 435.465 / 435.565
JAS-2 25 Apr 13:10:46 13:12:25 11° 31° (NNE) 13:14:18 435.910
Cosmos 2504 25 Apr 13:14:11 13:21:30 31° 81° (E) 13:28:52 435.465 / 435.565
SPROUT 25 Apr 13:18:14 13:22:07 32° 95° (E) 13:26:01 437.525
HUMSAT D 25 Apr 13:21:05 13:24:55 30° 296° (WNW) 13:28:42 437.325/437.525
AO-7 25 Apr 13:21:45 13:27:04 20° 30° (NNE) 13:32:34 29.400- 29.500
Gurwin Techsat 1B 25 Apr 13:23:53 13:27:49 22° 55° (NE) 13:31:52 435.225
ZACube-1 25 Apr 13:23:58 13:27:20 20° 302° (WNW) 13:30:37 437.345
QB50P1 25 Apr 13:24:07 13:24:52 10° 278° (W) 13:25:24 145.935-145.965
Oscar 11 25 Apr 13:25:11 13:27:06 13° 308° (NW) 13:28:52 145.826/435.025
VELOX 1 25 Apr 13:26:24 13:30:39 44° 293° (WNW) 13:34:52 145.980
CUBEBUG 1 25 Apr 13:32:28 13:36:49 68° 288° (WNW) 13:41:09 437.445
DELFI C3 25 Apr 13:33:04 13:34:24 11° 307° (NW) 13:35:35 145.870
HO-68 25 Apr 13:40:33 13:44:54 17° 323° (NW) 13:49:03 435.675
AIST 2 25 Apr 13:43:17 13:46:56 27° 240° (WSW) 13:50:29 435.215
AISAT 25 Apr 13:44:22 13:48:21 32° 297° (WNW) 13:52:17 437.250
SO-50 25 Apr 13:54:00 13:58:46 82° 315° (NW) 14:03:42 436.795
DX 1 25 Apr 13:57:37 14:00:17 16° 306° (NW) 14:02:51 434.975-435.025
Oscar 19 25 Apr 13:59:21 14:04:32 85° 254° (WSW) 14:09:47 437.125/150
AIST 1 25 Apr 14:15:14 14:16:58 12° 278° (W) 14:18:33
50 SAT 25 Apr 14:19:48 14:22:02 14° 304° (NW) 14:24:09 437.505
YUBILEINY 25 Apr 14:21:19 14:28:44 28° 308° (NW) 14:35:59 435.215
ESTCUBE 1 25 Apr 14:22:36 14:26:22 26° 299° (WNW) 14:30:01 437.505/2401.250
ITUPSAT 1 25 Apr 14:22:49 14:26:28 22° 90° (E) 14:30:13 437.325
TISAT 1 25 Apr 14:24:19 14:28:36 81° 287° (WNW) 14:32:52 437.305
ISS 25 Apr 14:33:01 14:36:03 37° 160° (SSE) 14:39:08 145.825
ITAMSAT 1 25 Apr 14:33:31 14:38:40 71° 70° (ENE) 14:43:52 435.822/435.867
HORYU 2 25 Apr 14:42:15 14:45:31 20° 57° (ENE) 14:48:53 437.375
PCSat 25 Apr 14:42:34 14:46:38 21° 10° (N) 14:50:43 145.827
RS-15 25 Apr 14:44:19 14:53:39 36° 110° (ESE) 15:03:25 29.354- 29.394
JAS-2 25 Apr 14:48:58 14:55:25 30° 54° (NE) 15:01:39 435.910
BEESAT 25 Apr 14:53:21 14:57:50 39° 97° (E) 15:02:18 436.000
SPROUT 25 Apr 14:54:15 14:58:16 37° 294° (WNW) 15:02:15 437.525
SWISSCUBE 25 Apr 14:55:48 15:00:22 43° 98° (E) 15:04:55 437.505
Gurwin Techsat 1B 25 Apr 15:01:57 15:07:16 84° 252° (WSW) 15:12:39 435.225
Cosmos 2504 25 Apr 15:05:19 15:14:16 81° 283° (WNW) 15:23:00 435.465 / 435.565
AO-7 25 Apr 15:10:19 15:18:06 48° 55° (NE) 15:25:58 29.400- 29.500
CUBEBUG 1 25 Apr 15:10:30 15:12:28 13° 308° (NW) 15:14:17 437.445
SO-50 25 Apr 15:35:42 15:39:58 30° 339° (NNW) 15:44:19 436.795
Oscar 19 25 Apr 15:41:36 15:44:47 16° 276° (W) 15:47:48 437.125/150
STARS 25 Apr 15:47:24 15:50:37 20° 89° (E) 15:53:56 437.465
ITUPSAT 1 25 Apr 16:00:06 16:04:50 63° 290° (WNW) 16:09:32 437.325
TISAT 1 25 Apr 16:01:27 16:03:47 14° 306° (NW) 16:05:59 437.305
ISS 25 Apr 16:08:57 16:12:11 63° 179° (S) 16:15:26 145.825
ITAMSAT 1 25 Apr 16:14:43 16:18:45 22° 271° (W) 16:22:41 435.822/435.867
HORYU 2 25 Apr 16:17:15 16:21:45 72° 256° (WSW) 16:26:17 437.375
PCSat 25 Apr 16:26:22 16:31:29 39° 35° (NE) 16:36:36 145.827
KKS-1 25 Apr 16:28:06 16:32:36 63° 102° (ESE) 16:37:04 437.445
YUBILEINY 25 Apr 16:28:30 16:29:45 10° 339° (NNW) 16:30:43 435.215
BEESAT 25 Apr 16:31:18 16:35:41 36° 297° (WNW) 16:40:00 436.000
JAS-2 25 Apr 16:31:56 16:39:50 88° 257° (WSW) 16:47:20 435.910
SWISSCUBE 25 Apr 16:33:53 16:38:09 33° 298° (WNW) 16:42:21 437.505
Gurwin Techsat 1B 25 Apr 16:44:53 16:48:11 16° 276° (W) 16:51:18 435.225
GONETS M04 25 Apr 16:45:01 16:53:00 42° 86° (E) 17:01:09
RS-15 25 Apr 16:54:01 17:04:59 87° 314° (NW) 17:16:23 29.354- 29.394
MOZHAYETS 4 25 Apr 16:55:23 16:57:30 13° 83° (E) 16:59:48
Cosmos 2504 25 Apr 17:01:56 17:09:14 27° 308° (NW) 17:16:11 435.465 / 435.565
AO-7 25 Apr 17:02:44 17:10:53 57° 258° (WSW) 17:19:03 29.400- 29.500
SO-50 25 Apr 17:17:58 17:21:51 23° 3° (N) 17:25:48 436.795
CUSAT 1 25 Apr 17:21:16 17:24:25 22° 83° (E) 17:28:24 437.405
STARS 25 Apr 17:23:05 17:27:32 64° 289° (WNW) 17:31:57 437.465
CUTE-I 25 Apr 17:23:21 17:27:38 26° 57° (ENE) 17:32:01 437.470
Cubesat XI-IV 25 Apr 17:32:38 17:37:10 30° 59° (ENE) 17:41:47 437.490
Cosmos 2499 25 Apr 17:38:00 17:43:27 19° 74° (ENE) 17:49:07 435.465 / 435.565
ITUPSAT 1 25 Apr 17:39:34 17:41:55 13° 310° (NW) 17:44:07 437.325
ISS 25 Apr 17:45:14 17:48:20 40° 199° (SSW) 17:51:26 145.825
HORYU 2 25 Apr 17:57:57 17:59:20 11° 277° (W) 18:00:30 437.375
DANDE 25 Apr 17:59:41 18:03:02 32° 89° (E) 18:07:27 436.750
KKS-1 25 Apr 18:05:23 18:08:54 22° 301° (WNW) 18:12:20 437.445
PCSat 25 Apr 18:09:50 18:15:12 60° 237° (WSW) 18:20:31 145.827
JAS-2 25 Apr 18:19:30 18:25:50 25° 275° (W) 18:31:45 435.910
MOZHAYETS 4 25 Apr 18:30:55 18:35:34 83° 104° (ESE) 18:40:09
CUBESAT XI-V 25 Apr 18:32:21 18:33:35 11° 82° (E) 18:35:03 437.345
GONETS M04 25 Apr 18:40:57 18:49:38 60° 289° (WNW) 18:58:25
HO-68 25 Apr 18:54:03 18:59:13 22° 43° (NE) 19:04:33 435.675
STARS 25 Apr 19:01:15 19:03:13 13° 309° (NW) 19:05:03 437.465
